sat.trackr.live / text

‹ back to catalog

STARLINK-32135

NORAD 60277 · 2024-131Y

PAYLOAD ACTIVE UNKNOWN

§ Identity

Operator
Country
US
Launch date
2024-07-27
Launch site
AFETR
Launch vehicle
Mass (kg)
RCS (m²)

Purposes: comms

External: N2YO · Heavens-Above · Gunter

§ Orbital elements

Epoch: 2026-05-25T04:42:04.013856Z

Period
94.11 min
Inclination
53.1599°
Eccentricity
0.0001077
Mean motion
15.30192842 rev/d
Perigee alt
474.5 km
Apogee alt
476.0 km
Semi-major
6,853.4 km
B*
2.5618e-5
RAAN
56.9481°
Arg perigee
102.5422°
Mean anomaly
257.5700°
Rev number
10,343

§ Raw data

STARLINK-321351 60277U 24131Y   26145.19587979  .00000400  00000+0  25618-4 0  99952 60277  53.1599  56.9481 0001077 102.5422 257.5700 15.30192842103432

JSON: /api/v1/satellites/60277 · /tle

For live sub-satellite position, see the globe view (requires WebGL).

§ Visibility from observer

Set your observer location to see the next 7 days of passes ≥ 10°. The values pass through the URL so the page stays shareable.

No JS? Fill the form by hand. The geolocation button needs JavaScript.